FW9116 Weather Reports


Display with metric or nautical units.
time (UTC)temp
F
wind
direction
speed
MPH
gust
MPH
rain 1hr
in
rain 24hr
in
rain mn
in
humidity
%
barometer
mb
20260903115554 53 0 0.0 5.0 0.00 0.42 0.03 92 1009.3
20260903115054 53 116 0.0 5.0 0.00 0.42 0.03 92 1009.3
20260903114607 53 0 0.0 6.0 0.00 0.42 0.03 92 1009.2
20260903114053 53 152 0.0 6.0 0.00 0.42 0.03 93 1009.2
20260903113557 53 138 1.0 6.0 0.00 0.42 0.03 93 1009.2
20260903113105 54 150 2.0 6.0 0.00 0.42 0.03 93 1009.1
20260903112556 54 159 1.0 6.0 0.00 0.42 0.03 93 1009.2
20260903112054 54 203 2.0 6.0 0.00 0.42 0.03 93 1009.2
20260903111602 54 173 2.0 6.0 0.00 0.42 0.03 93 1009.3
20260903111055 54 186 0.0 6.0 0.00 0.42 0.03 93 1009.2
20260903110553 54 153 3.0 6.0 0.00 0.42 0.03 93 1009.2
20260903110100 54 179 0.0 7.0 0.00 0.42 0.03 93 1009.1
20260903105555 54 182 2.0 7.0 0.00 0.42 0.03 93 1009.1
20260903105057 54 0 2.0 6.0 0.00 0.42 0.03 93 1009.2
20260903104604 54 126 1.0 6.0 0.00 0.42 0.03 93 1009.3
20260903104053 54 156 2.0 6.0 0.00 0.42 0.03 94 1009.3
20260903103553 54 171 1.0 7.0 0.00 0.42 0.03 94 1009.3
20260903103102 54 0 2.0 9.0 0.00 0.42 0.03 94 1009.2
20260903102554 54 156 2.0 9.0 0.00 0.42 0.03 94 1009.3
20260903102055 54 167 1.0 6.0 0.00 0.42 0.03 94 1009.3
20260903101604 54 137 1.0 6.0 0.00 0.42 0.03 94 1009.2
20260903101055 54 0 2.0 6.0 0.00 0.42 0.03 94 1009.2
20260903100554 54 194 0.0 5.0 0.00 0.42 0.03 94 1009.2
20260903095555 54 158 1.0 6.0 0.00 0.42 0.03 94 1009.1
20260903095053 54 147 2.0 6.0 0.00 0.42 0.03 94 1009.1
20260903094652 54 200 1.0 5.0 0.00 0.42 0.03 94 1009.1
20260903094055 54 191 2.0 6.0 0.00 0.42 0.03 94 1009.1
20260903093555 55 146 1.0 7.0 0.00 0.42 0.03 94 1009.1
20260903093104 55 138 2.0 7.0 0.00 0.42 0.03 94 1009.1
20260903092556 55 0 2.0 7.0 0.01 0.42 0.03 94 1009.1
20260903092058 55 185 0.0 5.0 0.01 0.42 0.03 94 1009.2
20260903091605 55 165 2.0 5.0 0.01 0.42 0.03 94 1009.2
20260903091057 55 182 0.0 5.0 0.01 0.42 0.03 94 1009.3
20260903090554 55 188 2.0 5.0 0.01 0.42 0.03 94 1009.4
20260903090104 55 194 1.0 3.0 0.02 0.42 0.03 94 1009.3
20260903085553 55 0 1.0 3.0 0.02 0.42 0.03 94 1009.3
20260903085053 55 175 1.0 5.0 0.02 0.42 0.03 94 1009.4
20260903084603 55 0 1.0 5.0 0.02 0.42 0.03 94 1009.4
20260903084053 55 185 1.0 5.0 0.02 0.42 0.03 94 1009.4
20260903083556 55 200 1.0 6.0 0.02 0.42 0.03 94 1009.3
20260903083103 55 214 1.0 6.0 0.02 0.42 0.03 94 1009.4
20260903082554 55 184 2.0 5.0 0.02 0.41 0.02 94 1009.5
20260903082054 55 161 1.0 7.0 0.02 0.41 0.02 94 1009.5
20260903081603 55 229 1.0 7.0 0.02 0.41 0.02 94 1009.4
20260903081054 55 187 2.0 5.0 0.02 0.41 0.02 94 1009.5
20260903080554 55 138 1.0 5.0 0.02 0.41 0.02 94 1009.4
20260903080103 55 148 0.0 6.0 0.01 0.40 0.01 94 1009.4
20260903075554 55 208 1.0 6.0 0.01 0.40 0.01 94 1009.5
20260903075054 55 173 3.0 6.0 0.02 0.40 0.01 94 1009.5
20260903074605 55 0 2.0 9.0 0.02 0.40 0.01 94 1009.5
20260903074058 55 155 1.0 9.0 0.02 0.40 0.01 94 1009.4
20260903073555 55 195 2.0 7.0 0.02 0.40 0.01 94 1009.5
20260903073100 55 176 2.0 7.0 0.02 0.40 0.01 94 1009.5
20260903072554 55 202 2.0 8.0 0.01 0.39 0.00 94 1009.5
20260903072056 55 193 3.0 8.0 0.01 0.39 0.00 94 1009.4
20260903071557 55 165 3.0 7.0 0.01 0.39 0.00 94 1009.3
20260903071055 55 164 3.0 8.0 0.01 0.39 0.00 93 1009.3
20260903070556 55 190 3.0 9.0 0.01 0.39 0.00 93 1009.4
20260903070103 55 194 3.0 9.0 0.01 0.39 0.00 93 1009.3
20260903065559 55 188 2.0 9.0 0.01 0.39 0.39 93 1009.4
20260903065054 55 145 3.0 9.0 0.00 0.38 0.38 93 1009.4
20260903064608 55 132 2.0 9.0 0.00 0.38 0.38 93 1009.4
20260903064055 55 0 3.0 13.0 0.00 0.38 0.38 93 1009.4
20260903063554 55 22 4.0 13.0 0.00 0.38 0.38 93 1009.5
20260903063102 55 202 4.0 12.0 0.00 0.38 0.38 92 1009.4
20260903062554 55 193 3.0 12.0 0.00 0.38 0.38 92 1009.3
20260903062055 55 167 3.0 13.0 0.00 0.38 0.38 92 1009.3
20260903061557 55 175 5.0 13.0 0.00 0.38 0.38 93 1009.5
20260903061054 55 0 3.0 10.0 0.00 0.38 0.38 93 1009.4
20260903060554 55 131 2.0 5.0 0.00 0.38 0.38 93 1009.5
20260903060108 55 167 1.0 4.0 0.00 0.38 0.38 93 1009.4
20260903055554 55 193 1.0 4.0 0.00 0.38 0.38 93 1009.3
20260903055055 55 141 1.0 4.0 0.00 0.38 0.38 93 1009.4
20260903054618 55 0 1.0 5.0 0.00 0.38 0.38 93 1009.4
20260903054057 55 155 1.0 5.0 0.00 0.38 0.38 92 1009.4
20260903053554 56 172 0.0 4.0 0.00 0.38 0.38 92 1009.5
20260903053107 56 0 1.0 4.0 0.00 0.38 0.38 92 1009.6
20260903052555 56 194 0.0 4.0 0.00 0.38 0.38 92 1009.6
20260903052057 56 211 0.0 8.0 0.00 0.38 0.38 92 1009.6
20260903051605 56 148 2.0 8.0 0.00 0.38 0.38 92 1009.5
20260903051055 56 0 2.0 9.0 0.00 0.38 0.38 92 1009.4
20260903050554 56 173 1.0 9.0 0.00 0.38 0.38 92 1009.3
20260903050104 56 164 1.0 7.0 0.00 0.38 0.38 92 1009.4
20260903045555 56 179 2.0 7.0 0.00 0.38 0.38 93 1009.4
20260903045055 56 193 3.0 7.0 0.00 0.38 0.38 93 1009.4
20260903044602 56 185 2.0 7.0 0.00 0.38 0.38 93 1009.3
20260903044054 56 190 2.0 6.0 0.00 0.38 0.38 93 1009.3
20260903043553 56 183 1.0 6.0 0.00 0.38 0.38 93 1009.3
20260903043103 56 207 1.0 5.0 0.00 0.38 0.38 93 1009.2
20260903042558 56 172 0.0 6.0 0.00 0.38 0.38 93 1009.1
20260903042053 56 0 2.0 7.0 0.00 0.38 0.38 93 1009.1
20260903041613 57 186 1.0 7.0 0.00 0.38 0.38 93 1009.1
20260903041054 57 172 3.0 7.0 0.00 0.38 0.38 93 1009.0
20260903040554 57 0 0.0 5.0 0.00 0.38 0.38 93 1009.1
20260903040125 57 0 3.0 7.0 0.00 0.38 0.38 93 1008.9
20260903035556 57 201 1.0 7.0 0.00 0.38 0.38 93 1008.9
20260903035056 57 169 2.0 6.0 0.01 0.38 0.38 93 1008.9
20260903034605 57 162 2.0 5.0 0.01 0.38 0.38 93 1008.8
20260903034055 57 197 1.0 5.0 0.01 0.38 0.38 93 1008.7
20260903033553 57 162 1.0 5.0 0.01 0.38 0.38 93 1008.5
20260903033100 57 137 1.0 5.0 0.01 0.38 0.38 93 1008.4
20260903032554 57 0 1.0 7.0 0.01 0.38 0.38 93 1008.3
20260903032057 57 178 2.0 9.0 0.01 0.38 0.38 93 1008.2
20260903031602 58 152 2.0 9.0 0.01 0.38 0.38 93 1008.2
20260903031057 58 175 3.0 8.0 0.01 0.38 0.38 93 1008.1
20260903030554 58 194 1.0 8.0 0.01 0.38 0.38 93 1008.1
20260903025554 58 170 2.0 6.0 0.01 0.38 0.38 93 1008.2
20260903025057 58 172 1.0 6.0 0.00 0.37 0.37 93 1008.0
20260903024558 58 192 2.0 10.0 0.00 0.37 0.37 93 1008.0
20260903024054 58 150 2.0 10.0 0.00 0.37 0.37 93 1007.9
20260903023555 58 186 3.0 7.0 0.00 0.37 0.37 93 1007.8
20260903023104 58 138 2.0 7.0 0.00 0.37 0.37 93 1007.8
20260903022557 58 192 0.0 7.0 0.00 0.37 0.37 93 1007.7
20260903022053 58 165 2.0 10.0 0.00 0.37 0.37 93 1007.8
20260903021602 59 189 2.0 11.0 0.00 0.37 0.37 93 1007.9
20260903021055 59 255 5.0 11.0 0.00 0.37 0.37 93 1007.7
20260903020555 59 200 2.0 9.0 0.00 0.37 0.37 93 1007.6
20260903020057 59 198 1.0 9.0 0.00 0.37 0.37 93 1007.6
20260903015555 59 168 2.0 8.0 0.00 0.37 0.37 93 1007.6
20260903015054 59 207 2.0 8.0 0.00 0.37 0.37 93 1007.6
20260903014557 59 113 1.0 5.0 0.00 0.37 0.37 93 1007.4
20260903014056 59 122 2.0 7.0 0.00 0.37 0.37 93 1007.3
20260903013554 59 193 2.0 7.0 0.00 0.37 0.37 93 1007.4
20260903013059 59 163 2.0 7.0 0.00 0.37 0.37 93 1007.4
20260903012553 59 192 1.0 5.0 0.00 0.37 0.37 93 1007.5
20260903012057 59 0 0.0 4.0 0.00 0.37 0.37 93 1007.4
20260903011558 59 125 0.0 4.0 0.00 0.37 0.37 93 1007.4
20260903011058 59 0 0.0 4.0 0.00 0.37 0.37 93 1007.3
20260903010554 59 0 0.0 4.0 0.00 0.37 0.37 92 1007.3
20260903010058 59 0 1.0 5.0 0.00 0.37 0.37 92 1007.3
20260903005555 59 133 0.0 6.0 0.00 0.37 0.37 93 1007.3
20260903005057 59 0 0.0 6.0 0.00 0.37 0.37 93 1007.2
20260903004601 59 200 1.0 6.0 0.00 0.37 0.37 92 1007.3
20260903004055 59 162 0.0 6.0 0.01 0.37 0.37 92 1007.2
20260903003555 59 132 3.0 6.0 0.01 0.37 0.37 92 1007.2
20260903003101 59 178 1.0 4.0 0.01 0.37 0.37 93 1007.0
20260903002555 59 105 1.0 6.0 0.01 0.37 0.37 92 1007.0
20260903002055 58 135 1.0 8.0 0.01 0.37 0.37 93 1006.9
20260903001608 58 172 2.0 8.0 0.01 0.37 0.37 93 1007.0
20260903001054 58 147 2.0 9.0 0.01 0.37 0.37 92 1006.9
20260903000554 58 177 2.0 9.0 0.01 0.37 0.37 92 1006.9
20260903000104 58 127 2.0 10.0 0.02 0.37 0.37 92 1006.9
20260902235553 58 205 1.0 10.0 0.02 0.37 0.37 92 1006.9
20260902235054 58 175 3.0 8.0 0.02 0.37 0.37 92 1006.9
20260902234558 58 256 1.0 8.0 0.02 0.37 0.37 92 1006.9
20260902234058 58 275 2.0 10.0 0.01 0.36 0.36 92 1006.9
20260902233554 59 172 2.0 10.0 0.01 0.36 0.36 91 1006.9
20260902233108 59 245 2.0 10.0 0.01 0.36 0.36 91 1006.7
20260902232554 59 178 3.0 10.0 0.01 0.36 0.36 91 1006.5
20260902232052 59 202 3.0 10.0 0.01 0.36 0.36 91 1006.7
20260902231602 59 267 2.0 16.0 0.01 0.36 0.36 91 1006.7
20260902231055 59 142 4.0 16.0 0.01 0.36 0.36 91 1006.6
20260902230558 59 192 2.0 15.0 0.01 0.36 0.36 90 1006.5
20260902230121 59 178 4.0 10.0 0.00 0.35 0.35 90 1006.6
20260902225554 59 19 2.0 18.0 0.00 0.35 0.35 90 1006.5
20260902225055 59 260 2.0 18.0 0.00 0.35 0.35 89 1006.4
20260902224601 60 218 4.0 15.0 0.00 0.35 0.35 89 1006.4
20260902224054 60 173 3.0 16.0 0.00 0.35 0.35 89 1006.3
20260902223554 60 157 5.0 17.0 0.00 0.35 0.35 89 1006.3
20260902223101 59 228 8.0 17.0 0.00 0.35 0.35 89 1006.2
20260902222554 59 171 4.0 16.0 0.00 0.35 0.35 90 1006.3
20260902222054 59 209 4.0 11.0 0.00 0.35 0.35 90 1006.2
20260902221606 59 194 4.0 15.0 0.00 0.35 0.35 91 1006.2
20260902221054 59 0 5.0 15.0 0.00 0.35 0.35 91 1006.2
20260902220555 59 186 3.0 12.0 0.00 0.35 0.35 91 1006.3
20260902220107 59 194 5.0 12.0 0.00 0.35 0.35 92 1006.2
20260902215554 59 242 3.0 10.0 0.00 0.35 0.35 92 1006.2
20260902215056 59 213 2.0 7.0 0.00 0.35 0.35 93 1006.3
20260902214625 59 155 3.0 7.0 0.00 0.35 0.35 93 1006.2
20260902214055 59 0 1.0 5.0 0.00 0.35 0.35 93 1006.1
20260902213555 59 0 1.0 8.0 0.00 0.35 0.35 93 1006.1
20260902213100 59 192 1.0 8.0 0.00 0.35 0.35 93 1006.2
20260902212554 59 144 2.0 6.0 0.01 0.35 0.35 93 1006.1
20260902212054 59 186 1.0 6.0 0.01 0.35 0.35 93 1006.2
20260902211558 59 208 2.0 6.0 0.02 0.35 0.35 93 1006.2
20260902211057 59 150 1.0 6.0 0.03 0.35 0.35 93 1006.1
20260902210555 59 155 1.0 5.0 0.04 0.35 0.35 93 1006.1
20260902210130 59 0 2.0 5.0 0.05 0.35 0.35 93 1006.2
20260902205554 59 212 2.0 5.0 0.05 0.35 0.35 93 1006.2
20260902205056 59 178 1.0 8.0 0.07 0.35 0.35 93 1006.2
20260902204602 58 0 1.0 8.0 0.08 0.35 0.35 93 1006.1
20260902204055 58 115 4.0 8.0 0.09 0.35 0.35 93 1006.0
20260902203554 58 130 3.0 7.0 0.11 0.35 0.35 93 1006.0
20260902203105 58 112 3.0 9.0 0.12 0.35 0.35 93 1005.8
20260902202554 58 153 3.0 9.0 0.15 0.34 0.34 93 1005.8
20260902202054 58 179 3.0 8.0 0.17 0.34 0.34 93 1005.8
20260902201610 58 100 3.0 8.0 0.17 0.33 0.33 92 1005.8
20260902201057 58 140 2.0 8.0 0.17 0.32 0.32 92 1005.8
20260902200554 59 0 3.0 8.0 0.17 0.31 0.31 92 1006.0
20260902200111 59 119 4.0 7.0 0.17 0.30 0.30 92 1005.9
20260902195555 59 136 3.0 7.0 0.17 0.30 0.30 92 1005.9
20260902195054 59 82 1.0 5.0 0.16 0.28 0.28 92 1006.0
20260902194604 59 119 1.0 5.0 0.16 0.27 0.27 91 1006.1
20260902194057 58 127 2.0 5.0 0.14 0.25 0.25 91 1006.2
20260902193556 59 112 2.0 5.0 0.13 0.24 0.24 90 1006.2
20260902193100 59 154 1.0 5.0 0.12 0.22 0.22 90 1006.4
20260902192554 59 159 2.0 5.0 0.09 0.19 0.19 90 1006.6
20260902192054 59 166 1.0 5.0 0.07 0.17 0.17 90 1006.5
20260902191602 59 184 1.0 5.0 0.07 0.16 0.16 90 1006.4
20260902191054 59 187 0.0 5.0 0.07 0.15 0.15 90 1006.4
20260902190557 59 178 2.0 5.0 0.06 0.14 0.14 90 1006.3
20260902190127 59 121 2.0 6.0 0.06 0.13 0.13 90 1006.3
20260902185554 59 117 1.0 6.0 0.07 0.13 0.13 89 1006.3
20260902185054 59 148 1.0 4.0 0.07 0.12 0.12 89 1006.3
20260902184610 59 151 1.0 5.0 0.07 0.11 0.11 89 1006.4
20260902184054 59 139 2.0 5.0 0.07 0.11 0.11 89 1006.4
20260902183553 59 149 1.0 7.0 0.08 0.11 0.11 88 1006.6
20260902183101 59 182 1.0 7.0 0.08 0.10 0.10 88 1006.6
20260902182554 59 171 2.0 7.0 0.09 0.10 0.10 87 1006.8
20260902182056 59 0 2.0 7.0 0.09 0.10 0.10 87 1006.9
20260902181620 59 136 1.0 8.0 0.09 0.09 0.09 86 1006.9
20260902181056 59 186 2.0 8.0 0.08 0.08 0.08 85 1007.0
20260902180555 60 197 1.0 8.0 0.08 0.08 0.08 84 1007.0
20260902180058 60 221 1.0 7.0 0.07 0.07 0.07 84 1007.0
20260902175555 60 295 2.0 7.0 0.06 0.06 0.06 82 1007.1
20260902175055 61 205 1.0 7.0 0.05 0.05 0.05 81 1007.1
20260902174601 62 200 1.0 7.0 0.04 0.04 0.04 80 1007.0
20260902174054 62 291 0.0 4.0 0.04 0.04 0.04 79 1006.9
20260902173554 62 246 1.0 4.0 0.03 0.03 0.03 79 1006.9
20260902173102 63 292 1.0 3.0 0.02 0.02 0.02 78 1006.8
20260902172554 63 0 0.0 0.0 0.01 0.01 0.01 76 1006.8
20260902172056 63 0 0.0 0.0 0.01 0.01 0.01 76 1006.6
20260902171621 64 0 0.0 1.0 0.00 0.00 0.00 74 1006.5
20260902171055 64 0 0.0 4.0 0.00 0.00 0.00 74 1006.4
20260902170554 64 252 0.0 4.0 0.00 0.00 0.00 73 1006.3
20260902165554 64 0 0.0 4.0 0.00 0.00 0.00 72 1006.3
20260902165057 64 0 0.0 4.0 0.00 0.00 0.00 70 1006.2
20260902164604 64 183 0.0 6.0 0.00 0.00 0.00 70 1006.2
20260902164055 64 202 0.0 6.0 0.00 0.00 0.00 70 1006.2
20260902163557 63 204 2.0 6.0 0.00 0.00 0.00 69 1006.2
20260902163103 63 255 1.0 5.0 0.00 0.00 0.00 71 1006.2
20260902162558 63 0 0.0 3.0 0.00 0.00 0.00 72 1006.3
20260902162059 63 0 0.0 2.0 0.00 0.00 0.00 73 1006.2
20260902161606 63 0 0.0 2.0 0.00 0.00 0.00 73 1006.2
20260902161054 62 94 0.0 2.0 0.00 0.00 0.00 73 1006.2
20260902160554 62 94 0.0 3.0 0.00 0.00 0.00 73 1006.3
20260902155555 62 0 0.0 3.0 0.00 0.00 0.00 74 1006.4
20260902155055 62 128 0.0 3.0 0.00 0.00 0.00 74 1006.4
20260902154603 62 126 1.0 4.0 0.00 0.00 0.00 74 1006.5
20260902154055 62 126 1.0 4.0 0.00 0.00 0.00 74 1006.5
20260902153555 61 119 0.0 4.0 0.00 0.00 0.00 74 1006.6
20260902153058 61 109 1.0 6.0 0.00 0.00 0.00 74 1006.7
20260902152555 61 105 2.0 6.0 0.00 0.00 0.00 74 1006.7
20260902152058 61 118 2.0 6.0 0.00 0.00 0.00 74 1006.7
20260902151603 61 123 3.0 6.0 0.00 0.00 0.00 74 1006.8
20260902151055 61 90 2.0 6.0 0.00 0.00 0.00 75 1006.8
20260902150557 61 121 2.0 6.0 0.00 0.00 0.00 75 1006.9
20260902150058 61 109 2.0 6.0 0.00 0.00 0.00 76 1006.9
20260902145555 61 107 1.0 7.0 0.00 0.00 0.00 76 1007.0
20260902145054 60 115 3.0 7.0 0.00 0.00 0.00 76 1007.0
20260902144605 60 104 2.0 6.0 0.00 0.00 0.00 76 1007.1
20260902144055 60 123 1.0 6.0 0.00 0.00 0.00 76 1007.2
20260902143555 60 107 1.0 6.0 0.00 0.00 0.00 76 1007.2
20260902143059 60 114 2.0 7.0 0.00 0.00 0.00 76 1007.2
20260902142554 60 123 2.0 8.0 0.00 0.00 0.00 76 1007.2
20260902142055 60 107 2.0 8.0 0.00 0.00 0.00 77 1007.3
20260902141601 60 113 2.0 6.0 0.00 0.00 0.00 77 1007.2
20260902141057 60 110 1.0 6.0 0.00 0.00 0.00 77 1007.3
20260902140554 60 118 2.0 5.0 0.00 0.00 0.00 76 1007.4
20260902140059 60 82 2.0 5.0 0.00 0.00 0.00 77 1007.6
20260902135555 60 0 1.0 3.0 0.00 0.00 0.00 77 1007.6
20260902135054 60 115 1.0 3.0 0.00 0.00 0.00 77 1007.6
20260902134610 60 0 0.0 3.0 0.00 0.00 0.00 77 1007.6
20260902134054 60 125 0.0 4.0 0.00 0.00 0.00 77 1007.7
20260902133554 60 145 1.0 4.0 0.00 0.00 0.00 77 1007.7
20260902133058 60 108 1.0 2.0 0.00 0.00 0.00 76 1007.8
20260902132554 60 148 1.0 2.0 0.00 0.00 0.00 76 1007.9
20260902132054 60 148 0.0 3.0 0.00 0.00 0.00 76 1008.0
20260902131601 60 0 0.0 3.0 0.00 0.00 0.00 76 1008.0
20260902131055 60 148 0.0 2.0 0.00 0.00 0.00 76 1008.1
20260902130554 60 148 0.0 2.0 0.00 0.00 0.00 76 1008.1
20260902125555 60 0 0.0 1.0 0.00 0.00 0.00 77 1008.3
20260902125057 60 0 0.0 2.0 0.00 0.00 0.00 76 1008.3
20260902124559 60 0 0.0 2.0 0.00 0.00 0.00 77 1008.5
20260902124058 60 148 0.0 3.0 0.00 0.00 0.00 77 1008.5
20260902123555 60 0 0.0 3.0 0.00 0.00 0.00 77 1008.5
20260902123101 60 129 1.0 4.0 0.00 0.00 0.00 77 1008.5
20260902122554 60 174 0.0 5.0 0.00 0.00 0.00 77 1008.7
20260902122055 60 121 2.0 5.0 0.00 0.00 0.00 77 1008.8
20260902121602 60 194 1.0 5.0 0.00 0.00 0.00 77 1008.9
20260902121055 60 136 1.0 5.0 0.00 0.00 0.00 77 1009.0
20260902120556 60 0 2.0 5.0 0.00 0.00 0.00 77 1009.0